Location: Kunchanapalle
(16.4623°N, 80.6176°E)
Time: 17:32:29
(UTC+00:00)

Cosmos 1992 Rocket - Pass Details

Date: 13 August 2020
Orbit: 759 x 765 km, 74.0° (Epoch: 20 September)

Event Time Altitude Azimuth Distance (km) Brightness Sun altitude
Rises 13:49:01 0° 356° (N) 3,219 7.6 -11.3°
Reaches altitude 10° 13:51:30 10° 2° (N) 2,292 6.7 -11.9°
Maximum altitude 13:56:28 45° 75° (ENE) 1,024 4.3 -13.0°
Enters shadow 14:00:38 14° 144° (SE) 2,006 5.7 -13.9°
